Weather in Gimpo

South Korea     37°36′11″N   126°44′07″E
temp.,
°C
wind,
m/s
gust,
m/s
humid.,
%
clouds,
%
prec.,
mm/h
press.,
hPa
HPBL,
m
24 october, sun
sun2400:00+13nnw01460 0.0 102895
03:00+13n11515 0.0 102786
06:00+12ne015399 0.0 102757
09:00+13ne01505 0.0 1028397
12:00+16w22405 0.0 10271060
15:00+16w33340 0.0 10251082
18:00+15w23373 0.0 1025564
21:00+14nw12402 0.0 1026113
25 october, mon
mon2500:00+13n11440 0.0 102672
03:00+12nne12540 0.0 102563
06:00+11nne11560 0.0 102552
09:00+13ne12470 0.0 1025287
12:00+16nw33381 0.0 10241078
15:00+17wnw333399 0.0 10221234
18:00+15wnw334175 0.0 1022679
21:00+14nw23491 0.0 1023244
26 october, tue
tue2600:00+13nne1154100 0.0 102261
03:00+13n11588 0.0 102257
06:00+12nne116396 0.0 102245
09:00+13e1158100 0.0 1023214
12:00+16ssw1252100 0.0 1022761
15:00+17wsw3356100 0.0 10201015
18:00+16w3455100 0.0 10201031
21:00+16w2457100 0.0 1020600
27 october, wed
wed2700:00+16wsw4662100 0.1 1019538
03:00+15w48693 0.8 1019520
06:00+14nw48710 0.4 1019500
09:00+14nnw59520 0.4 1021601
12:00+16nw57290 0.0 10211035
15:00+17nw57270 0.0 10191273
18:00+16nnw57350 0.0 1020993
21:00+13nw59420 0.0 1022702
28 october, thu
thu2800:00+13nw49490 0.0 1022635
03:00+12nw27510 0.0 1022331
06:00+12nnw24540 0.0 1022185
09:00+13n25460 0.0 1024337
12:00+16nnw35320 0.0 1023798
15:00+18nnw34290 0.0 10221068
18:00+17nnw24310 0.0 1023306
21:00+15n22390 0.0 102491